Date String (YYYY-MM-DD hh:mm:ss) UTC,Instrument flags,absolute air pressure of the measurement (hPa),sample flow rate (lpm),inlet stack bypass flow (lpm),air temperature of the measurement (°C),ambient temperature measured by the external sensor (°C),aerosol sample conditioner tube jacket temperature (°C),OPC LED temperature (°C),internal box temperature (°C),relative humidity of the measurement (%),span deviation,mass concentration of particles derived from Lorenz-Mie calculation of OPC scattering (μg/m³),mass concentration of particles derived from Lorenz-Mie calculation of OPC scattering (μg/m³),mass concentration of particles derived from Lorenz-Mie calculation of OPC scattering (μg/m³)
DateTimeUTC,F1_M11,P_M11,Q1_M11,Q2_M11,T1_M11,T2_M11,T3_M11,T4_M11,T5_M11,U1_M11,ZSPAN_M11,X0_M11,X2_M11,X1_M11
2023-09-27 21:00:00,SystemResetWarning,0829.4,4.99,000.00,027.9,025.1,000.0,036.3,029.5,14.2,0000.0,0014.80,0005.82,0004.96
2023-09-27 21:01:00,SystemResetWarning,0829.3,4.99,000.00,027.9,025.5,000.0,036.3,029.6,14.2,0001.3,0014.59,0005.83,0004.95
2023-09-27 21:02:00,SystemResetWarning,0829.3,5.01,000.00,027.9,026.0,000.0,036.3,029.7,14.6,0001.7,0014.25,0005.80,0004.96
2023-09-27 21:03:00,SystemResetWarning,0829.3,5.01,000.00,028.0,026.3,000.0,036.3,029.8,14.7,0000.6,0014.77,0005.81,0004.97
2023-09-27 21:04:00,SystemResetWarning,0829.4,4.99,000.00,028.0,026.7,000.0,036.3,029.9,14.8,0000.5,0014.07,0005.77,0004.98
2023-09-27 21:05:00,SystemResetWarning,0829.4,4.99,000.00,028.1,026.9,000.0,036.4,030.0,14.6,0001.4,0013.39,0005.70,0004.98
2023-09-27 21:06:00,SystemResetWarning,0829.4,4.99,000.00,028.1,025.8,000.0,036.4,029.9,14.5,0001.4,0013.21,0005.71,0004.97
2023-09-27 21:07:00,SystemResetWarning,0829.3,5.01,000.00,028.0,024.4,000.0,036.3,029.7,14.6,0000.5,0012.65,0005.70,0004.97
2023-09-27 21:08:00,SystemResetWarning,0829.3,5.02,000.00,028.0,024.5,000.0,036.3,029.6,15.2,0000.0,0012.52,0005.72,0004.99
2023-09-27 21:09:00,SystemResetWarning,0829.2,4.99,000.00,027.9,024.8,000.0,036.3,029.5,14.8,0000.0,0012.09,0005.73,0005.00
2023-09-27 21:10:00,SystemResetWarning,0829.2,5.00,000.00,027.9,025.3,000.0,036.3,029.6,15.0,0000.0,0012.02,0005.73,0005.01
2023-09-27 21:11:00,SystemResetWarning,0829.3,5.00,000.00,027.9,025.7,000.0,036.3,029.6,14.9,0000.0,0012.52,0005.73,0005.02
2023-09-27 21:12:00,SystemResetWarning,0829.2,5.00,000.00,027.9,026.2,000.0,036.3,029.7,14.6,0000.0,0012.53,0005.75,0005.03
2023-09-27 21:13:00,SystemResetWarning,0829.3,5.00,000.00,028.0,026.5,000.0,036.3,029.8,14.5,0000.0,0012.36,0005.78,0005.05
2023-09-27 21:14:00,SystemResetWarning,0829.3,5.00,000.00,028.1,026.8,000.0,036.4,029.9,14.7,0000.0,0011.82,0005.78,0005.05
2023-09-27 21:15:00,SystemResetWarning,0829.3,5.00,000.00,028.1,026.7,000.0,036.4,030.0,14.2,0000.0,0011.79,0005.80,0005.07
2023-09-27 21:16:00,SystemResetWarning,0829.2,4.97,000.00,028.1,025.2,000.0,036.3,029.8,14.0,0000.0,0012.00,0005.82,0005.09
2023-09-27 21:17:00,SystemResetWarning,0829.2,5.02,000.00,028.0,024.4,000.0,036.3,029.6,14.2,0000.0,0012.28,0005.82,0005.11
2023-09-27 21:18:00,SystemResetWarning,0829.1,5.01,000.00,027.9,024.7,000.0,036.3,029.6,14.4,0000.0,0012.41,0005.84,0005.13
2023-09-27 21:19:00,SystemResetWarning,0829.1,5.00,000.00,027.9,025.0,000.0,036.3,029.5,14.8,0000.2,0012.90,0005.84,0005.14
2023-09-27 21:20:00,SystemResetWarning,0829.1,5.01,000.00,027.9,025.5,000.0,036.3,029.6,14.9,0000.1,0012.84,0005.85,0005.14
2023-09-27 21:21:00,SystemResetWarning,0829.1,5.00,000.00,027.9,025.9,000.0,036.3,029.7,14.7,0000.0,0013.09,0005.86,0005.14
2023-09-27 21:22:00,SystemResetWarning,0829.1,5.00,000.00,028.0,026.3,000.0,036.3,029.8,14.4,0000.0,0012.47,0005.84,0005.15
2023-09-27 21:23:00,SystemResetWarning,0829.1,5.00,000.00,028.0,026.6,000.0,036.4,029.9,14.2,0000.0,0012.07,0005.83,0005.15
2023-09-27 21:24:00,SystemResetWarning,0829.1,4.99,000.00,028.1,026.6,000.0,036.4,030.0,14.2,0000.0,0012.26,0005.83,0005.15
2023-09-27 21:25:00,SystemResetWarning,0829.1,4.98,000.00,028.0,025.2,000.0,036.3,029.8,14.5,0000.0,0012.70,0005.84,0005.16
2023-09-27 21:26:00,SystemResetWarning,0829.0,5.02,000.00,028.0,024.3,000.0,036.3,029.6,14.4,0000.0,0012.70,0005.86,0005.17
2023-09-27 21:27:00,SystemResetWarning,0829.0,5.01,000.00,027.9,024.6,000.0,036.3,029.6,14.4,0000.0,0012.16,0005.86,0005.17
2023-09-27 21:28:00,SystemResetWarning,0829.0,4.99,000.00,027.9,025.0,000.0,036.3,029.5,14.5,0000.0,0011.31,0005.83,0005.17
2023-09-27 21:29:00,SystemResetWarning,0828.9,5.00,000.00,027.9,025.4,000.0,036.3,029.5,14.7,0000.0,0011.29,0005.82,0005.16
2023-09-27 21:30:00,SystemResetWarning,0828.9,5.01,000.00,027.9,025.9,000.0,036.3,029.7,14.7,0000.0,0010.77,0005.82,0005.14
2023-09-27 21:31:00,SystemResetWarning,0828.9,5.00,000.00,027.9,026.3,000.0,036.3,029.8,14.5,0000.0,0010.35,0005.78,0005.13
2023-09-27 21:32:00,SystemResetWarning,0828.9,5.00,000.00,028.0,026.6,000.0,036.3,029.9,14.8,0000.0,0010.18,0005.76,0005.14
2023-09-27 21:33:00,SystemResetWarning,0828.9,5.00,000.00,028.1,026.9,000.0,036.4,030.0,14.4,0000.1,0010.83,0005.76,0005.13
2023-09-27 21:34:00,SystemResetWarning,0828.9,5.00,000.00,028.1,027.0,000.0,036.4,030.0,14.2,0001.1,0010.77,0005.73,0005.13
2023-09-27 21:35:00,SystemResetWarning,0829.0,4.98,000.00,028.1,025.6,000.0,036.4,029.9,14.3,0000.0,0011.46,0005.70,0005.11
2023-09-27 21:36:00,SystemResetWarning,0828.9,5.01,000.00,028.1,024.5,000.0,036.3,029.8,14.5,0000.0,0011.93,0005.67,0005.11
2023-09-27 21:37:00,SystemResetWarning,0828.9,5.01,000.00,028.0,024.7,000.0,036.3,029.7,14.4,0000.0,0012.48,0005.64,0005.08
2023-09-27 21:38:00,SystemResetWarning,0828.8,5.00,000.00,028.0,025.0,000.0,036.3,029.6,14.5,0001.3,0012.91,0005.65,0005.07
2023-09-27 21:39:00,SystemResetWarning,0828.8,5.00,000.00,027.9,025.4,000.0,036.3,029.6,14.7,0001.3,0014.05,0005.67,0005.04
2023-09-27 21:40:00,SystemResetWarning,0828.8,4.99,000.00,028.0,025.9,000.0,036.3,029.7,14.8,0000.0,0014.96,0005.67,0005.04
2023-09-27 21:41:00,SystemResetWarning,0828.9,5.00,000.00,028.0,026.3,000.0,036.4,029.8,14.7,0000.0,0016.12,0005.65,0005.01
2023-09-27 21:42:00,SystemResetWarning,0828.9,5.00,000.00,028.1,026.6,000.0,036.4,029.9,14.5,0000.0,0016.74,0005.62,0004.99
2023-09-27 21:43:00,SystemResetWarning,0828.8,5.00,000.00,028.1,026.8,000.0,036.4,030.0,14.5,0000.0,0017.35,0005.63,0004.98
2023-09-27 21:44:00,SystemResetWarning,0828.8,4.98,000.00,028.1,025.6,000.0,036.4,029.9,14.2,0000.0,0018.03,0005.62,0004.95
2023-09-27 21:45:00,SystemResetWarning,0828.8,5.01,000.00,028.0,024.4,000.0,036.3,029.7,14.2,0000.0,0017.91,0005.59,0004.92
2023-09-27 21:46:00,SystemResetWarning,0828.8,5.01,000.00,028.0,024.6,000.0,036.3,029.6,14.4,0000.0,0017.94,0005.60,0004.89
2023-09-27 21:47:00,SystemResetWarning,0828.8,4.99,000.00,027.9,024.9,000.0,036.3,029.5,14.6,0000.0,0017.02,0005.60,0004.87
2023-09-27 21:48:00,SystemResetWarning,0828.8,5.00,000.00,027.9,025.4,000.0,036.3,029.6,14.6,0000.0,0016.22,0005.59,0004.84
2023-09-27 21:49:00,SystemResetWarning,0828.8,5.00,000.00,027.9,025.8,000.0,036.3,029.7,14.9,0000.0,0015.72,0005.54,0004.81
2023-09-27 21:50:00,SystemResetWarning,0828.8,5.00,000.00,028.0,026.2,000.0,036.3,029.8,15.0,0000.0,0015.09,0005.48,0004.79
2023-09-27 21:51:00,SystemResetWarning,0828.8,5.00,000.00,028.0,026.6,000.0,036.4,029.9,14.6,0000.0,0013.85,0005.43,0004.78
2023-09-27 21:52:00,SystemResetWarning,0828.8,5.00,000.00,028.1,026.8,000.0,036.4,030.0,14.4,0000.0,0012.18,0005.37,0004.76
2023-09-27 21:53:00,SystemResetWarning,0828.8,4.98,000.00,028.1,025.7,000.0,036.4,029.9,14.3,0000.0,0011.56,0005.37,0004.76
2023-09-27 21:54:00,SystemResetWarning,0828.7,5.01,000.00,028.0,024.4,000.0,036.3,029.7,14.5,0000.0,0011.11,0005.36,0004.75
2023-09-27 21:55:00,SystemResetWarning,0828.7,5.01,000.00,028.0,024.5,000.0,036.3,029.6,14.6,0000.0,0010.59,0005.38,0004.76
2023-09-27 21:56:00,SystemResetWarning,0828.7,5.00,000.00,027.9,024.9,000.0,036.3,029.5,14.5,0000.0,0010.07,0005.37,0004.76
2023-09-27 21:57:00,SystemResetWarning,0828.7,5.00,000.00,027.9,025.3,000.0,036.3,029.6,14.4,0000.0,0010.06,0005.40,0004.78
2023-09-27 21:58:00,SystemResetWarning,0828.7,4.99,000.00,027.9,025.8,000.0,036.3,029.7,14.5,0000.0,0010.33,0005.40,0004.78
2023-09-27 21:59:00,SystemResetWarning,0828.7,5.00,000.00,028.0,026.2,000.0,036.3,029.8,14.6,0000.0,0010.74,0005.40,0004.80
